Location: Siloam Springs
(36.1881°N, 94.5403°W)
Time: 15:07:49
(UTC-05:00)

RS-15 - Pass Details

Date: 29 May 2024
Orbit: 1896 x 2148 km, 64.8° (Epoch: 19 June)

Event Time Altitude Azimuth Distance (km) Brightness Sun altitude
Rises 22:08:39 0° 330° (NNW) 5,387 11.9 -17.1°
Reaches altitude 10° 22:12:40 10° 341° (NNW) 4,355 10.9 -17.6°
Maximum altitude 22:22:13 32° 41° (NE) 2,919 9.0 -19.0°
Enters shadow 22:30:34 13° 97° (E) 4,042 9.3 -20.1°
